Regional Weather Roundup
Issued by NWS

Home | Current Version | Previous Version | Text Only | Print | Product List | Glossary Off
Versions: 1 2 3 4 5 6 7 8 9 10 11 12 13 14 15 16 17 18 19 20 21 22 23 24 25 26 27 28 29 30 31 32 33 34 35 36 37 38 39 40 41 42 43 44 45 46 47 48 49 50

000
ASUS43 KLOT 262006
RWRIL

ILLINOIS REGIONAL WEATHER ROUNDUP
NATIONAL WEATHER SERVICE CHICAGO/ROMEOVILLE IL
200 PM CST WED NOV 26 2014

NOTE: "FAIR" INDICATES FEW OR NO CLOUDS BELOW 12,000 FEET WITH NO
SIGNIFICANT WEATHER AND/OR OBSTRUCTIONS TO VISIBILITY.

* THESE STATIONS ARE NOT UNDER NWS QUALITY CONTROL. THEY ALSO MAY NOT
  REPORT WEATHER SUCH AS PRECIPITATION OR FOG.

ILZ001-002-007-009-015-016-024-262100-
NORTHWEST ILLINOIS

CITY           SKY/WX    TMP DP  RH WIND       PRES   REMARKS
MOLINE         CLOUDY    29  24  82 E15       30.06R HAZE    WCI  18
STERLING*      CLOUDY    28  21  74 SE8       30.09R WCI  20
SAVANNA*       CLOUDY    29  24  79 E7        30.10R WCI  22
$$

ILZ003-004-008-010-011-017-018-262100-
NORTH CENTRAL ILLINOIS

CITY           SKY/WX    TMP DP  RH WIND       PRES   REMARKS
ROCKFORD       CLOUDY    26  19  74 SE8       30.12S WCI  18
FREEPORT*      CLOUDY    26  21  81 E7        30.11S WCI  18
ROCHELLE*      CLOUDY    26  21  82 E6        30.10S WCI  19
DE KALB*       CLOUDY    24  19  80 SE5       30.09S WCI  18
PERU*          CLOUDY    29  23  76 SE9       30.09S WCI  21
$$

ILZ005-006-012>014-019>023-262100-
NORTHEAST ILLINOIS

CITY           SKY/WX    TMP DP  RH WIND       PRES   REMARKS
CHICAGO-OHARE  CLOUDY    28  20  71 E8        30.10S WCI  20
CHICAGO-MIDWAY CLOUDY    28  20  71 SE5       30.11F WCI  23
AURORA         CLOUDY    27  18  69 E7        30.10F WCI  19
LANSING*       CLOUDY    27  20  76 CALM      30.11F
JOLIET*        CLOUDY    26  20  78 E5        30.11S WCI  21
WAUKEGAN       CLOUDY    29  22  75 NE3       30.10S
DUPAGE AIRPORT PTSUNNY   27  18  69 E8        30.09S WCI  19
KANKAKEE*      CLOUDY   N/A N/A N/A E5        30.10S
WHEELING       CLOUDY    29  21  72 SE7       30.12S WCI  22
MORRIS*        CLOUDY    28  24  82 E9        30.09F WCI  20
NORTHERLY ISL    N/A     27  20  75 E7          N/A  WCI  20
$$

LMZ740>746-262100-
SOUTHERN LAKE MICHIGAN

STATION/POSITION SKY/WX   TEMP    WIND        PRES    VSBY  WAVE
                          AIR SEA DIR/SP/G                  HT/PER
                          (F)     (DEG/KT/KT) (MB)    (MI)  (FT/S)
SOUTHERN BUOY              31 42  160/  4/  6 1020.6F         1/ 3
WAUKEGAN HARBOR            28      CALM  /  2   N/A
HARRISON CRIB              27     180/  8/ 10   N/A
BURNHAM HARBOR             27     130/  4/  8   N/A
CALUMET HARBOR             26     100/  3/  5 1018.4F
MICHIGAN CITY              27      70/  5/  6   N/A
$$

ILZ025>027-034>036-040-047-049-050-058-095>099-262100-
WEST-CENTRAL ILLINOIS

CITY           SKY/WX    TMP DP  RH WIND       PRES   REMARKS
QUINCY         LGT SNOW  32  29  88 SE9       29.96R FOG     WCI  24
GALESBURG*     LGT SNOW  31  28  90 E10G16    30.02S WCI  22
MACOMB*        CLOUDY    31  31  96 E17       30.02R FOG     WCI  20
JACKSONVILLE*  LGT SNOW  34  32  90 E16       29.98S WCI  24
PITTSFIELD*    CLOUDY    33  32  96 E5        29.98R WCI  28
$$

ILZ028>032-037-038-041>044-048-051>054-059>061-262100-
CENTRAL ILLINOIS

CITY           SKY/WX    TMP DP  RH WIND       PRES   REMARKS
PONTIAC        CLOUDY    29  25  84 E9        30.09F WCI  20
BLOOMINGTON    CLOUDY    28  25  89 E14       30.06S WCI  17
DECATUR        CLOUDY    29  26  89 E13       30.06R FOG     WCI  19
PEORIA         CLOUDY    31  24  75 E7        30.06S WCI  24
LACON*         CLOUDY    29  23  78 E7        30.07S WCI  22
LINCOLN*       LGT SNOW  31  28  88 E14       30.06S WCI  21
SPRINGFIELD    LGT SNOW  33  30  88 E14       30.01F FOG     WCI  23
TAYLORVILLE    LGT SNOW  32  30  93 E9        30.02S WCI  24
$$

ILZ033-039-045-046-055>057-062-063-262100-
EAST-CENTRAL ILLINOIS

CITY           SKY/WX    TMP DP  RH WIND       PRES   REMARKS
CHAMPAIGN      CLOUDY    29  24  82 E10       30.06F WCI  20
DANVILLE*      PTSUNNY   30  24  76 NE6       30.04S WCI  24
MATTOON        CLOUDY    29  24  82 SE7       30.04F WCI  22
PARIS*         MOSUNNY   33  26  74 CALM      30.06F
$$

ILZ079-100>102-262100-
SOUTHWEST ILLINOIS

CITY           SKY/WX    TMP DP  RH WIND       PRES   REMARKS
ALTON          LGT SNOW  32  32 100 E9        29.99S WCI  24
BELLEVILLE     LGT SNOW  32  32 100 E5        29.98S VSB 1   WCI  27
CAHOKIA*       SNOW      33  32  96 CALM      29.99R VSB 1/4
SPARTA*        SNOW      32  32  98 SE3       29.99S VSB 1/2
$$

ILZ064>066-069>071-074>076-080>082-084>086-088>090-092>094-262100-
SOUTH-CENTRAL ILLINOIS

CITY           SKY/WX    TMP DP  RH WIND       PRES   REMARKS
CARBONDALE     LGT RAIN  37  32  82 SE10      29.98F WCI  30
CAIRO*         DRIZZLE   45  33  64 E6        29.96F
EFFINGHAM*     CLOUDY    35  26  71 E7        30.04S WCI  29
MARION         CLOUDY    41  30  65 SE12      30.00F
MT. VERNON     CLOUDY    37  28  70 E9        30.01S WCI  31
CENTRALIA*     CLOUDY    37  29  73 E6        30.00S WCI  32
SALEM*           N/A     38  30  71 E6        30.01S WCI  34
METROPOLIS*    RAIN      41  34  76 SE5         N/A
$$

ILZ067-068-072-073-078-083-087-091-262100-
SOUTHEAST ILLINOIS

CITY           SKY/WX    TMP DP  RH WIND       PRES   REMARKS
LAWRENCEVILLE  PTSUNNY   39  27  62 SE5       30.05F
FLORA*         PTSUNNY   35  29  78 E7        30.03F WCI  29
FAIRFIELD*     CLOUDY    37  29  72 E9        30.00F WCI  31
HARRISBURG*    CLOUDY    40  32  71 E9        30.01F
ROBINSON*      MOSUNNY   36  28  70 CALM      30.07S
CARMI*         CLOUDY    40  32  72 E9        30.02F
$$

ABBREVIATIONS USED IN REMARKS
   TC - TEMPERATURE IN CELSIUS
  WCI - WIND CHILL INDEX
   HX - HEAT INDEX
  VSB - VISIBILITY
$$



USA.gov is the U.S. government's official web portal to all federal, state and local government web resources and services.